| time (UTC) | temp F | wind direction | speed knots | gust knots | rain 1hr in | rain 24hr in | rain mn in | humidity % | barometer mb |
| 20260503215039 | 69 | 132 | 0.9 | 2.6 | 0.00 | 0.01 | 0.01 | 56 | 1016.5 |
| 20260503214538 | 69 | 144 | 1.7 | 2.6 | 0.00 | 0.01 | 0.01 | 56 | 1016.5 |
| 20260503214039 | 69 | 158 | 0.9 | 2.6 | 0.00 | 0.01 | 0.01 | 56 | 1016.5 |
| 20260503213539 | 69 | 155 | 0.9 | 2.6 | 0.00 | 0.01 | 0.01 | 56 | 1016.5 |
| 20260503213039 | 69 | 201 | 0.9 | 2.6 | 0.00 | 0.01 | 0.01 | 55 | 1016.6 |
| 20260503212538 | 69 | 156 | 0.9 | 2.6 | 0.00 | 0.01 | 0.01 | 55 | 1016.6 |
| 20260503211538 | 70 | 165 | 0.9 | 2.6 | 0.00 | 0.01 | 0.01 | 55 | 1016.6 |
| 20260503211039 | 70 | 179 | 0.9 | 4.3 | 0.00 | 0.01 | 0.01 | 56 | 1016.8 |
| 20260503210538 | 70 | 155 | 0.9 | 6.1 | 0.00 | 0.01 | 0.01 | 56 | 1016.8 |
| 20260503210038 | 70 | 163 | 2.6 | 5.2 | 0.00 | 0.01 | 0.01 | 54 | 1016.8 |
| 20260503205538 | 71 | 197 | 0.9 | 4.3 | 0.00 | 0.01 | 0.01 | 52 | 1016.9 |
| 20260503204538 | 72 | 139 | 0.0 | 6.1 | 0.00 | 0.01 | 0.01 | 51 | 1016.8 |
| 20260503204039 | 74 | 176 | 2.6 | 5.2 | 0.00 | 0.01 | 0.01 | 47 | 1016.8 |
| 20260503203039 | 75 | 238 | 1.7 | 2.6 | 0.00 | 0.01 | 0.01 | 48 | 1017.0 |
| 20260503202538 | 75 | 160 | 1.7 | 2.6 | 0.00 | 0.01 | 0.01 | 49 | 1017.0 |
| 20260503202039 | 74 | 148 | 0.9 | 2.6 | 0.00 | 0.01 | 0.01 | 49 | 1017.0 |
| 20260503201538 | 74 | 325 | 0.0 | 4.3 | 0.00 | 0.01 | 0.01 | 43 | 1017.0 |
| 20260503201039 | 74 | 329 | 1.7 | 5.2 | 0.00 | 0.01 | 0.01 | 44 | 1017.7 |
| 20260503200538 | 74 | 3 | 0.9 | 2.6 | 0.00 | 0.01 | 0.01 | 45 | 1017.7 |
| 20260503200038 | 74 | 11 | 1.7 | 2.6 | 0.00 | 0.01 | 0.01 | 42 | 1017.7 |
| 20260503195538 | 74 | 77 | 0.9 | 6.1 | 0.00 | 0.01 | 0.01 | 44 | 1017.7 |
| 20260503195039 | 74 | 121 | 0.9 | 2.6 | 0.00 | 0.01 | 0.01 | 44 | 1017.7 |
| 20260503193539 | 73 | 206 | 0.9 | 2.6 | 0.00 | 0.01 | 0.01 | 45 | 1017.7 |
| 20260503193039 | 73 | 309 | 1.7 | 7.0 | 0.00 | 0.01 | 0.01 | 44 | 1017.7 |
| 20260503192538 | 73 | 13 | 4.3 | 7.8 | 0.00 | 0.01 | 0.01 | 44 | 1017.7 |
| 20260503192039 | 73 | 281 | 3.5 | 7.0 | 0.00 | 0.02 | 0.01 | 43 | 1018.1 |
| 20260503191538 | 73 | 353 | 2.6 | 7.0 | 0.00 | 0.02 | 0.01 | 45 | 1018.1 |
| 20260503191039 | 72 | 336 | 0.9 | 4.3 | 0.00 | 0.03 | 0.01 | 46 | 1018.7 |
| 20260503190038 | 72 | 337 | 2.6 | 4.3 | 0.00 | 0.03 | 0.01 | 49 | 1018.7 |
| 20260503185538 | 72 | 339 | 1.7 | 5.2 | 0.00 | 0.03 | 0.01 | 45 | 1018.7 |
| 20260503185040 | 72 | 261 | 1.7 | 5.2 | 0.00 | 0.03 | 0.01 | 46 | 1018.7 |
| 20260503184538 | 72 | 197 | 2.6 | 5.2 | 0.00 | 0.03 | 0.01 | 48 | 1018.7 |
| 20260503184039 | 71 | 203 | 2.6 | 7.0 | 0.00 | 0.04 | 0.01 | 46 | 1018.7 |
| 20260503183538 | 72 | 344 | 3.5 | 6.1 | 0.00 | 0.04 | 0.01 | 45 | 1018.7 |
| 20260503182538 | 72 | 328 | 0.9 | 7.0 | 0.00 | 0.06 | 0.01 | 44 | 1019.3 |
| 20260503182039 | 72 | 324 | 5.2 | 8.7 | 0.00 | 0.07 | 0.01 | 47 | 1019.3 |
| 20260503181538 | 71 | 334 | 2.6 | 6.1 | 0.00 | 0.07 | 0.01 | 48 | 1019.3 |
| 20260503180538 | 70 | 343 | 3.5 | 6.1 | 0.00 | 0.08 | 0.01 | 45 | 1019.3 |
| 20260503180038 | 70 | 236 | 1.7 | 5.2 | 0.00 | 0.08 | 0.01 | 46 | 1019.3 |
| 20260503175537 | 70 | 343 | 2.6 | 5.2 | 0.00 | 0.08 | 0.01 | 46 | 1019.3 |
| 20260503175039 | 71 | 334 | 4.3 | 7.8 | 0.00 | 0.08 | 0.01 | 44 | 1019.3 |
| 20260503174538 | 71 | 40 | 3.5 | 7.8 | 0.00 | 0.08 | 0.01 | 43 | 1019.3 |
| 20260503174039 | 71 | 317 | 1.7 | 7.0 | 0.00 | 0.09 | 0.01 | 45 | 1019.3 |
| 20260503173539 | 70 | 208 | 1.7 | 5.2 | 0.00 | 0.09 | 0.01 | 47 | 1019.3 |
| 20260503173039 | 70 | 272 | 1.7 | 6.1 | 0.00 | 0.09 | 0.01 | 47 | 1019.3 |
| 20260503172538 | 70 | 263 | 1.7 | 4.3 | 0.00 | 0.10 | 0.01 | 49 | 1019.3 |
| 20260503171537 | 69 | 183 | 1.7 | 4.3 | 0.00 | 0.12 | 0.01 | 49 | 1019.3 |
| 20260503171038 | 69 | 355 | 1.7 | 5.2 | 0.00 | 0.13 | 0.01 | 49 | 1019.5 |
| 20260503170537 | 69 | 327 | 5.2 | 7.0 | 0.00 | 0.15 | 0.01 | 50 | 1019.5 |
| 20260503150537 | 60 | 340 | 2.6 | 7.0 | 0.00 | 0.22 | 0.01 | 66 | 1020.0 |
| 20260503130538 | 54 | 319 | 1.7 | 4.3 | 0.00 | 0.39 | 0.01 | 100 | 1019.3 |
| 20260503110537 | 46 | 339 | 0.0 | 0.0 | 0.01 | 0.48 | 0.01 | 93 | 1017.4 |
| 20260503081537 | 48 | 338 | 0.0 | 0.0 | 0.00 | 0.63 | 0.00 | 93 | 1016.1 |
| 20260503081037 | 48 | 338 | 0.0 | 0.0 | 0.00 | 0.64 | 0.00 | 93 | 1016.1 |
| 20260503080536 | 48 | 338 | 0.0 | 0.0 | 0.00 | 0.64 | 0.00 | 93 | 1016.1 |
| 20260503072038 | 49 | 338 | 0.0 | 0.0 | 0.00 | 0.69 | 0.00 | 93 | 1016.0 |
| 20260503071536 | 49 | 338 | 0.0 | 0.0 | 0.00 | 0.69 | 0.00 | 93 | 1016.0 |
| 20260503071037 | 49 | 338 | 0.0 | 0.0 | 0.00 | 0.70 | 0.00 | 93 | 1015.9 |
| 20260503070537 | 49 | 338 | 0.0 | 0.0 | 0.00 | 0.70 | 0.00 | 93 | 1015.9 |
| 20260503055037 | 51 | 338 | 0.0 | 0.0 | 0.00 | 0.73 | 0.00 | 93 | 1015.4 |
| 20260503054536 | 51 | 338 | 0.0 | 0.0 | 0.00 | 0.73 | 0.00 | 93 | 1015.4 |
| 20260503053537 | 51 | 338 | 0.0 | 0.0 | 0.00 | 0.73 | 0.00 | 93 | 1015.4 |
| 20260503053037 | 52 | 338 | 0.0 | 0.0 | 0.00 | 0.73 | 0.00 | 93 | 1015.4 |
| 20260503052037 | 52 | 338 | 0.0 | 0.0 | 0.00 | 0.73 | 0.00 | 94 | 1015.4 |
| 20260503051535 | 52 | 338 | 0.0 | 0.0 | 0.00 | 0.73 | 0.00 | 93 | 1015.4 |
| 20260503051037 | 52 | 338 | 0.0 | 0.0 | 0.00 | 0.73 | 0.00 | 93 | 1015.4 |
| 20260503050536 | 52 | 338 | 0.0 | 0.0 | 0.00 | 0.73 | 0.00 | 94 | 1015.4 |
| 20260503045536 | 53 | 338 | 0.0 | 0.0 | 0.00 | 0.74 | 0.00 | 94 | 1015.4 |
| 20260503045037 | 53 | 338 | 0.0 | 0.0 | 0.00 | 0.74 | 0.00 | 94 | 1015.1 |
| 20260503044536 | 53 | 338 | 0.0 | 0.0 | 0.00 | 0.74 | 0.00 | 94 | 1015.1 |
| 20260503044036 | 53 | 338 | 0.0 | 0.0 | 0.00 | 0.74 | 0.00 | 94 | 1015.1 |
| 20260503043538 | 53 | 338 | 0.0 | 0.0 | 0.00 | 0.74 | 0.00 | 94 | 1015.1 |
| 20260503043036 | 53 | 338 | 0.0 | 0.0 | 0.00 | 0.74 | 0.00 | 94 | 1015.1 |
| 20260503042536 | 54 | 338 | 0.0 | 0.0 | 0.00 | 0.74 | 0.00 | 94 | 1014.8 |
| 20260503042037 | 54 | 338 | 0.0 | 0.0 | 0.00 | 0.74 | 0.00 | 94 | 1014.8 |
| 20260503040536 | 54 | 338 | 0.0 | 0.0 | 0.00 | 0.74 | 0.00 | 94 | 1014.8 |
| 20260503040036 | 54 | 338 | 0.0 | 1.7 | 0.00 | 0.74 | 0.00 | 94 | 1014.8 |
| 20260503035536 | 54 | 338 | 0.9 | 1.7 | 0.00 | 0.74 | 0.74 | 94 | 1014.8 |
| 20260503035036 | 54 | 338 | 0.0 | 2.6 | 0.00 | 0.74 | 0.74 | 94 | 1014.8 |
| 20260503034536 | 54 | 338 | 1.7 | 2.6 | 0.00 | 0.74 | 0.74 | 94 | 1014.4 |
| 20260503034037 | 54 | 330 | 2.6 | 4.3 | 0.00 | 0.74 | 0.74 | 94 | 1014.4 |
| 20260503033536 | 54 | 346 | 0.9 | 2.6 | 0.00 | 0.74 | 0.74 | 94 | 1014.4 |
| 20260503033036 | 54 | 345 | 0.9 | 2.6 | 0.00 | 0.74 | 0.74 | 94 | 1014.4 |
| 20260503032037 | 54 | 346 | 0.0 | 0.0 | 0.00 | 0.74 | 0.74 | 94 | 1014.4 |
| 20260503031536 | 54 | 346 | 0.0 | 0.0 | 0.00 | 0.74 | 0.74 | 94 | 1014.1 |
| 20260503031037 | 54 | 346 | 0.0 | 0.0 | 0.00 | 0.74 | 0.74 | 94 | 1014.1 |
| 20260503030537 | 54 | 346 | 0.0 | 0.0 | 0.00 | 0.74 | 0.74 | 94 | 1014.1 |
| 20260503030035 | 54 | 346 | 0.0 | 0.0 | 0.00 | 0.74 | 0.74 | 94 | 1014.1 |
| 20260503025536 | 54 | 346 | 0.0 | 0.0 | 0.00 | 0.74 | 0.74 | 94 | 1013.3 |
| 20260503025037 | 54 | 346 | 0.0 | 0.0 | 0.00 | 0.74 | 0.74 | 94 | 1013.3 |
| 20260503024536 | 54 | 346 | 0.0 | 0.0 | 0.00 | 0.74 | 0.74 | 94 | 1013.3 |
| 20260503024036 | 55 | 346 | 0.0 | 0.0 | 0.00 | 0.74 | 0.74 | 94 | 1013.3 |
| 20260503023536 | 55 | 346 | 0.0 | 0.0 | 0.00 | 0.74 | 0.74 | 94 | 1013.3 |
| 20260503023036 | 55 | 346 | 0.0 | 2.6 | 0.00 | 0.74 | 0.74 | 94 | 1013.3 |
| 20260503022536 | 55 | 344 | 0.9 | 2.6 | 0.00 | 0.74 | 0.74 | 94 | 1013.3 |
| 20260503022036 | 55 | 344 | 0.9 | 1.7 | 0.00 | 0.74 | 0.74 | 94 | 1013.3 |
| 20260503021536 | 55 | 346 | 1.7 | 2.6 | 0.00 | 0.74 | 0.74 | 94 | 1013.3 |
| 20260503021037 | 55 | 47 | 2.6 | 6.1 | 0.00 | 0.74 | 0.74 | 94 | 1013.3 |
| 20260503020535 | 55 | 338 | 1.7 | 2.6 | 0.00 | 0.74 | 0.74 | 94 | 1013.3 |
| 20260503020036 | 55 | 8 | 0.9 | 2.6 | 0.00 | 0.74 | 0.74 | 94 | 1012.7 |
| 20260503015037 | 55 | 5 | 1.7 | 2.6 | 0.00 | 0.74 | 0.74 | 94 | 1012.7 |
| 20260503014536 | 55 | 5 | 0.9 | 2.6 | 0.00 | 0.74 | 0.74 | 94 | 1012.7 |
| 20260503014036 | 55 | 5 | 0.9 | 2.6 | 0.00 | 0.74 | 0.74 | 94 | 1012.7 |
| 20260503013536 | 55 | 350 | 1.7 | 2.6 | 0.00 | 0.74 | 0.74 | 94 | 1012.7 |
| 20260503012535 | 55 | 325 | 0.9 | 2.6 | 0.00 | 0.74 | 0.74 | 94 | 1012.7 |
| 20260503012037 | 55 | 15 | 0.9 | 1.7 | 0.00 | 0.74 | 0.74 | 94 | 1012.7 |
| 20260503011536 | 55 | 15 | 0.9 | 1.7 | 0.00 | 0.74 | 0.74 | 94 | 1012.7 |
| 20260503011037 | 55 | 15 | 0.9 | 2.6 | 0.00 | 0.74 | 0.74 | 94 | 1012.7 |
| 20260503010536 | 55 | 15 | 0.9 | 2.6 | 0.00 | 0.74 | 0.74 | 94 | 1012.7 |
| 20260503010035 | 55 | 13 | 0.0 | 2.6 | 0.00 | 0.74 | 0.74 | 94 | 1012.7 |
| 20260503005535 | 55 | 14 | 0.0 | 1.7 | 0.00 | 0.74 | 0.74 | 94 | 1012.6 |
| 20260503005036 | 55 | 13 | 0.9 | 2.6 | 0.00 | 0.74 | 0.74 | 94 | 1012.6 |
| 20260503004536 | 55 | 15 | 0.9 | 2.6 | 0.00 | 0.74 | 0.74 | 94 | 1011.8 |
| 20260503004036 | 55 | 355 | 1.7 | 2.6 | 0.00 | 0.74 | 0.74 | 94 | 1011.8 |
| 20260503003536 | 55 | 38 | 1.7 | 2.6 | 0.00 | 0.74 | 0.74 | 94 | 1011.8 |
| 20260503003037 | 55 | 349 | 0.9 | 2.6 | 0.00 | 0.74 | 0.74 | 94 | 1011.8 |
| 20260503002535 | 55 | 10 | 1.7 | 2.6 | 0.00 | 0.74 | 0.74 | 94 | 1011.8 |
| 20260503002037 | 55 | 34 | 1.7 | 2.6 | 0.00 | 0.74 | 0.74 | 94 | 1011.8 |
| 20260503001535 | 55 | 335 | 1.7 | 4.3 | 0.00 | 0.74 | 0.74 | 94 | 1011.8 |
| 20260503001036 | 55 | 2 | 1.7 | 2.6 | 0.00 | 0.74 | 0.74 | 94 | 1011.8 |
| 20260503000536 | 55 | 9 | 1.7 | 2.6 | 0.00 | 0.74 | 0.74 | 94 | 1011.8 |
| 20260503000035 | 55 | 20 | 0.9 | 2.6 | 0.00 | 0.74 | 0.74 | 94 | 1011.9 |
| 20260502235036 | 55 | 319 | 0.9 | 1.7 | 0.00 | 0.74 | 0.74 | 94 | 1011.6 |
| 20260502234535 | 55 | 319 | 0.9 | 2.6 | 0.00 | 0.74 | 0.74 | 94 | 1011.8 |
| 20260502234037 | 55 | 19 | 1.7 | 5.2 | 0.00 | 0.75 | 0.74 | 94 | 1011.8 |
| 20260502233037 | 56 | 6 | 2.6 | 5.2 | 0.00 | 0.75 | 0.74 | 94 | 1011.0 |
| 20260502232535 | 56 | 329 | 2.6 | 4.3 | 0.00 | 0.75 | 0.74 | 94 | 1011.0 |
| 20260502231535 | 56 | 15 | 1.7 | 4.3 | 0.00 | 0.75 | 0.74 | 94 | 1011.0 |
| 20260502231035 | 56 | 329 | 2.6 | 6.1 | 0.00 | 0.75 | 0.74 | 94 | 1011.0 |
| 20260502230536 | 56 | 336 | 2.6 | 6.1 | 0.00 | 0.76 | 0.74 | 94 | 1011.0 |
| 20260502230035 | 56 | 327 | 4.3 | 8.7 | 0.00 | 0.76 | 0.74 | 94 | 1011.0 |
| 20260502225535 | 56 | 341 | 1.7 | 5.2 | 0.00 | 0.76 | 0.74 | 94 | 1011.0 |
| 20260502225038 | 56 | 328 | 2.6 | 5.2 | 0.00 | 0.76 | 0.74 | 94 | 1011.0 |
| 20260502224535 | 56 | 11 | 0.9 | 2.6 | 0.00 | 0.76 | 0.74 | 94 | 1011.3 |
| 20260502224036 | 56 | 12 | 0.9 | 6.1 | 0.00 | 0.76 | 0.74 | 94 | 1011.3 |
| 20260502223535 | 56 | 330 | 3.5 | 6.1 | 0.00 | 0.76 | 0.74 | 94 | 1011.2 |
| 20260502223036 | 56 | 353 | 2.6 | 5.2 | 0.00 | 0.76 | 0.74 | 94 | 1011.1 |
| 20260502222536 | 56 | 355 | 3.5 | 7.8 | 0.00 | 0.76 | 0.74 | 95 | 1010.3 |
| 20260502221535 | 56 | 30 | 1.7 | 6.1 | 0.00 | 0.76 | 0.74 | 95 | 1010.3 |
| 20260502220535 | 56 | 348 | 2.6 | 4.3 | 0.00 | 0.76 | 0.74 | 95 | 1010.3 |
| 20260502220035 | 57 | 335 | 2.6 | 5.2 | 0.00 | 0.76 | 0.74 | 95 | 1010.3 |
| 20260502215535 | 56 | 339 | 4.3 | 7.8 | 0.00 | 0.76 | 0.74 | 95 | 1010.3 |